Year,Month,Day,Hour,Minute,Value (Times are PST for temperature in C)
2011,05,19,00,00,6.00
2011,05,19,00,01,6.00
2011,05,19,00,02,6.00
2011,05,19,00,03,6.00
2011,05,19,00,04,6.00
2011,05,19,00,05,5.90
2011,05,19,00,06,5.90
2011,05,19,00,07,5.90
2011,05,19,00,08,5.90
2011,05,19,00,09,5.90
2011,05,19,00,10,5.90
2011,05,19,00,11,5.90
2011,05,19,00,12,5.90
2011,05,19,00,13,5.90
2011,05,19,00,14,5.90
2011,05,19,00,15,5.90
2011,05,19,00,16,5.90
2011,05,19,00,17,5.90
2011,05,19,00,18,5.90
2011,05,19,00,19,5.80
2011,05,19,00,20,5.80
2011,05,19,00,21,5.80
2011,05,19,00,22,5.80
2011,05,19,00,23,5.80
2011,05,19,00,24,5.80
2011,05,19,00,25,5.80
2011,05,19,00,26,5.80
2011,05,19,00,27,5.80
2011,05,19,00,28,5.70
2011,05,19,00,29,5.70
2011,05,19,00,30,5.70
2011,05,19,00,31,5.70
2011,05,19,00,32,5.70
2011,05,19,00,33,5.70
2011,05,19,00,34,5.70
2011,05,19,00,35,5.70
2011,05,19,00,36,5.70
2011,05,19,00,37,5.70
2011,05,19,00,38,5.70
2011,05,19,00,39,5.70
2011,05,19,00,40,5.70
2011,05,19,00,41,5.70
2011,05,19,00,42,5.70
2011,05,19,00,43,5.70
2011,05,19,00,44,5.70
2011,05,19,00,45,5.70
2011,05,19,00,46,5.70
2011,05,19,00,47,5.70
2011,05,19,00,48,5.70
2011,05,19,00,49,5.70
2011,05,19,00,50,5.70
2011,05,19,00,51,5.70
2011,05,19,00,52,5.70
2011,05,19,00,53,5.70
2011,05,19,00,54,5.70
2011,05,19,00,55,5.70
2011,05,19,00,56,5.70
2011,05,19,00,57,5.70
2011,05,19,00,58,5.70
2011,05,19,00,59,5.70
2011,05,19,01,00,5.70
2011,05,19,01,01,5.70
2011,05,19,01,02,5.70
2011,05,19,01,03,5.60
2011,05,19,01,04,5.60
2011,05,19,01,05,5.60
2011,05,19,01,06,5.60
2011,05,19,01,07,5.70
2011,05,19,01,08,5.70
2011,05,19,01,09,5.60
2011,05,19,01,10,5.60
2011,05,19,01,11,5.60
2011,05,19,01,12,5.60
2011,05,19,01,13,5.60
2011,05,19,01,14,5.60
2011,05,19,01,15,5.60
2011,05,19,01,16,5.60
2011,05,19,01,17,5.60
2011,05,19,01,18,5.60
2011,05,19,01,19,5.50
2011,05,19,01,20,5.50
2011,05,19,01,21,5.50
2011,05,19,01,22,5.40
2011,05,19,01,23,5.40
2011,05,19,01,24,5.40
2011,05,19,01,25,5.40
2011,05,19,01,26,5.40
2011,05,19,01,27,5.50
2011,05,19,01,28,5.50
2011,05,19,01,29,5.50
2011,05,19,01,30,5.50
2011,05,19,01,31,5.40
2011,05,19,01,32,5.40
2011,05,19,01,33,5.40
2011,05,19,01,34,5.40
2011,05,19,01,35,5.40
2011,05,19,01,36,5.40
2011,05,19,01,37,5.40
2011,05,19,01,38,5.40
2011,05,19,01,39,5.40
2011,05,19,01,40,5.40
2011,05,19,01,41,5.40
2011,05,19,01,42,5.40
2011,05,19,01,43,5.40
2011,05,19,01,44,5.40
2011,05,19,01,45,5.40
2011,05,19,01,46,5.40
2011,05,19,01,47,5.30
2011,05,19,01,48,5.30
2011,05,19,01,49,5.30
2011,05,19,01,50,5.30
2011,05,19,01,51,5.30
2011,05,19,01,52,5.30
2011,05,19,01,53,5.30
2011,05,19,01,54,5.30
2011,05,19,01,55,5.30
2011,05,19,01,56,5.30
2011,05,19,01,57,5.30
2011,05,19,01,58,5.30
2011,05,19,01,59,5.30
2011,05,19,02,00,5.30
2011,05,19,02,01,5.30
2011,05,19,02,02,5.30
2011,05,19,02,03,5.30
2011,05,19,02,04,5.30
2011,05,19,02,05,5.30
2011,05,19,02,06,5.30
2011,05,19,02,07,5.30
2011,05,19,02,08,5.30
2011,05,19,02,09,5.30
2011,05,19,02,10,5.30
2011,05,19,02,11,5.30
2011,05,19,02,12,5.30
2011,05,19,02,13,5.30
2011,05,19,02,14,5.30
2011,05,19,02,15,5.30
2011,05,19,02,16,5.30
2011,05,19,02,17,5.30
2011,05,19,02,18,5.30
2011,05,19,02,19,5.30
2011,05,19,02,20,5.30
2011,05,19,02,21,5.30
2011,05,19,02,22,5.20
2011,05,19,02,23,5.20
2011,05,19,02,24,5.20
2011,05,19,02,25,5.20
2011,05,19,02,26,5.20
2011,05,19,02,27,5.20
2011,05,19,02,28,5.20
2011,05,19,02,29,5.20
2011,05,19,02,30,5.20
2011,05,19,02,31,5.20
2011,05,19,02,32,5.10
2011,05,19,02,33,5.10
2011,05,19,02,34,5.10
2011,05,19,02,35,5.10
2011,05,19,02,36,5.10
2011,05,19,02,37,5.10
2011,05,19,02,38,5.10
2011,05,19,02,39,5.00
2011,05,19,02,40,4.90
2011,05,19,02,41,4.90
2011,05,19,02,42,4.90
2011,05,19,02,43,4.90
2011,05,19,02,44,4.90
2011,05,19,02,45,4.90
2011,05,19,02,46,5.10
2011,05,19,02,47,5.10
2011,05,19,02,48,5.10
2011,05,19,02,49,5.10
2011,05,19,02,50,5.10
2011,05,19,02,51,5.10
2011,05,19,02,52,5.10
2011,05,19,02,53,5.10
2011,05,19,02,54,5.10
2011,05,19,02,55,5.10
2011,05,19,02,56,5.10
2011,05,19,02,57,5.10
2011,05,19,02,58,5.00
2011,05,19,02,59,4.90
2011,05,19,03,00,4.90
2011,05,19,03,01,4.90
2011,05,19,03,02,4.90
2011,05,19,03,03,4.90
2011,05,19,03,04,4.90
2011,05,19,03,05,4.90
2011,05,19,03,06,4.90
2011,05,19,03,07,4.90
2011,05,19,03,08,4.80
2011,05,19,03,09,4.80
2011,05,19,03,10,4.70
2011,05,19,03,11,4.70
2011,05,19,03,12,4.70
2011,05,19,03,13,4.60
2011,05,19,03,14,4.60
2011,05,19,03,15,4.60
2011,05,19,03,16,4.60
2011,05,19,03,17,4.60
2011,05,19,03,18,4.60
2011,05,19,03,19,4.60
2011,05,19,03,20,4.60
2011,05,19,03,21,4.60
2011,05,19,03,22,4.60
2011,05,19,03,23,4.60
2011,05,19,03,24,4.60
2011,05,19,03,25,4.60
2011,05,19,03,26,4.60
2011,05,19,03,27,4.60
2011,05,19,03,28,4.60
2011,05,19,03,29,4.60
2011,05,19,03,30,4.50
2011,05,19,03,31,4.50
2011,05,19,03,32,4.50
2011,05,19,03,33,4.50
2011,05,19,03,34,4.40
2011,05,19,03,35,4.40
2011,05,19,03,36,4.40
2011,05,19,03,37,4.40
2011,05,19,03,38,4.40
2011,05,19,03,39,4.30
2011,05,19,03,40,4.30
2011,05,19,03,41,4.30
2011,05,19,03,42,4.30
2011,05,19,03,43,4.30
2011,05,19,03,44,4.20
2011,05,19,03,45,4.20
2011,05,19,03,46,4.20
2011,05,19,03,47,4.20
2011,05,19,03,48,4.20
2011,05,19,03,49,4.20
2011,05,19,03,50,4.20
2011,05,19,03,51,4.20
2011,05,19,03,52,4.20
2011,05,19,03,53,4.20
2011,05,19,03,54,4.20
2011,05,19,03,55,4.20
2011,05,19,03,56,4.20
2011,05,19,03,57,4.20
2011,05,19,03,58,4.20
2011,05,19,03,59,4.20
2011,05,19,04,00,4.20
2011,05,19,04,01,4.20
2011,05,19,04,02,4.20
2011,05,19,04,03,4.20
2011,05,19,04,04,4.10
2011,05,19,04,05,4.10
2011,05,19,04,06,4.10
2011,05,19,04,07,4.00
2011,05,19,04,08,4.00
2011,05,19,04,09,4.00
2011,05,19,04,10,3.90
2011,05,19,04,11,3.90
2011,05,19,04,12,3.80
2011,05,19,04,13,3.80
2011,05,19,04,14,3.80
2011,05,19,04,15,3.80
2011,05,19,04,16,3.80
2011,05,19,04,17,3.80
2011,05,19,04,18,3.80
2011,05,19,04,19,3.90
2011,05,19,04,20,3.90
2011,05,19,04,21,3.90
2011,05,19,04,22,3.90
2011,05,19,04,23,3.90
2011,05,19,04,24,3.90
2011,05,19,04,25,3.90
2011,05,19,04,26,3.90
2011,05,19,04,27,4.00
2011,05,19,04,28,4.00
2011,05,19,04,29,4.00
2011,05,19,04,30,4.00
2011,05,19,04,31,4.00
2011,05,19,04,32,4.00
2011,05,19,04,33,4.00
2011,05,19,04,34,4.00
2011,05,19,04,35,4.00
2011,05,19,04,36,4.00
2011,05,19,04,37,4.00
2011,05,19,04,38,4.00
2011,05,19,04,39,4.00
2011,05,19,04,40,4.00
2011,05,19,04,41,4.00
2011,05,19,04,42,4.00
2011,05,19,04,43,3.90
2011,05,19,04,44,3.90
2011,05,19,04,45,3.90
2011,05,19,04,46,3.90
2011,05,19,04,47,3.90
2011,05,19,04,48,3.80
2011,05,19,04,49,3.80
2011,05,19,04,50,3.80
2011,05,19,04,51,3.80
2011,05,19,04,52,3.80
2011,05,19,04,53,3.80
2011,05,19,04,54,3.80
2011,05,19,04,55,3.80
2011,05,19,04,56,3.80
2011,05,19,04,57,3.80
2011,05,19,04,58,3.90
2011,05,19,04,59,3.90
2011,05,19,05,00,3.90
2011,05,19,05,01,3.90
2011,05,19,05,02,4.00
2011,05,19,05,03,4.00
2011,05,19,05,04,4.00
2011,05,19,05,05,4.00
2011,05,19,05,06,4.00
2011,05,19,05,07,4.00
2011,05,19,05,08,4.00
2011,05,19,05,09,4.00
2011,05,19,05,10,4.00
2011,05,19,05,11,4.00
2011,05,19,05,12,4.10
2011,05,19,05,13,4.10
2011,05,19,05,14,4.10
2011,05,19,05,15,4.10
2011,05,19,05,16,4.10
2011,05,19,05,17,4.10
2011,05,19,05,18,4.10
2011,05,19,05,19,4.10
2011,05,19,05,20,4.10
2011,05,19,05,21,4.10
2011,05,19,05,22,4.10
2011,05,19,05,23,4.10
2011,05,19,05,24,4.10
2011,05,19,05,25,4.10
2011,05,19,05,26,4.10
2011,05,19,05,27,4.10
2011,05,19,05,28,4.10
2011,05,19,05,29,4.10
2011,05,19,05,30,4.00
2011,05,19,05,31,4.00
2011,05,19,05,32,4.00
2011,05,19,05,33,4.00
2011,05,19,05,34,4.00
2011,05,19,05,35,4.00
2011,05,19,05,36,4.00
2011,05,19,05,37,4.00
2011,05,19,05,38,4.00
2011,05,19,05,39,4.00
2011,05,19,05,40,4.00
2011,05,19,05,41,4.00
2011,05,19,05,42,4.10
2011,05,19,05,43,4.10
2011,05,19,05,44,4.10
2011,05,19,05,45,4.10
2011,05,19,05,46,4.00
2011,05,19,05,47,4.00
2011,05,19,05,48,4.00
2011,05,19,05,49,4.00
2011,05,19,05,50,4.00
2011,05,19,05,51,4.00
2011,05,19,05,52,4.00
2011,05,19,05,53,4.00
2011,05,19,05,54,4.00
2011,05,19,05,55,4.00
2011,05,19,05,56,4.00
2011,05,19,05,57,4.00
2011,05,19,05,58,4.00
2011,05,19,05,59,4.00
2011,05,19,06,00,4.00
2011,05,19,06,01,3.90
2011,05,19,06,02,3.90
2011,05,19,06,03,3.90
2011,05,19,06,04,3.80
2011,05,19,06,05,3.80
2011,05,19,06,06,3.80
2011,05,19,06,07,3.80
2011,05,19,06,08,3.80
2011,05,19,06,09,3.90
2011,05,19,06,10,3.90
2011,05,19,06,11,3.90
2011,05,19,06,12,4.00
2011,05,19,06,13,4.00
2011,05,19,06,14,4.00
2011,05,19,06,15,4.10
2011,05,19,06,16,4.10
2011,05,19,06,17,4.10
2011,05,19,06,18,4.10
2011,05,19,06,19,4.20
2011,05,19,06,20,4.20
2011,05,19,06,21,4.20
2011,05,19,06,22,4.20
2011,05,19,06,23,4.20
2011,05,19,06,24,4.20
2011,05,19,06,25,4.20
2011,05,19,06,26,4.20
2011,05,19,06,27,4.20
2011,05,19,06,28,4.20
2011,05,19,06,29,4.20
2011,05,19,06,30,4.20
2011,05,19,06,31,4.20
2011,05,19,06,32,4.20
2011,05,19,06,33,4.30
2011,05,19,06,34,4.30
2011,05,19,06,35,4.40
2011,05,19,06,36,4.40
2011,05,19,06,37,4.40
2011,05,19,06,38,4.50
2011,05,19,06,39,4.50
2011,05,19,06,40,4.60
2011,05,19,06,41,4.60
2011,05,19,06,42,4.70
2011,05,19,06,43,4.70
2011,05,19,06,44,4.80
2011,05,19,06,45,4.90
2011,05,19,06,46,4.90
2011,05,19,06,47,5.00
2011,05,19,06,48,5.10
2011,05,19,06,49,5.10
2011,05,19,06,50,5.10
2011,05,19,06,51,5.20
2011,05,19,06,52,5.20
2011,05,19,06,53,5.20
2011,05,19,06,54,5.20
2011,05,19,06,55,5.20
2011,05,19,06,56,5.20
2011,05,19,06,57,5.20
2011,05,19,06,58,5.20
2011,05,19,06,59,5.20
2011,05,19,07,00,5.30
2011,05,19,07,01,5.30
2011,05,19,07,02,5.30
2011,05,19,07,03,5.40
2011,05,19,07,04,5.40
2011,05,19,07,05,5.50
2011,05,19,07,06,5.50
2011,05,19,07,07,5.50
2011,05,19,07,08,5.60
2011,05,19,07,09,5.60
2011,05,19,07,10,5.60
2011,05,19,07,11,5.70
2011,05,19,07,12,5.70
2011,05,19,07,13,5.70
2011,05,19,07,14,5.70
2011,05,19,07,15,5.80
2011,05,19,07,16,5.90
2011,05,19,07,17,5.90
2011,05,19,07,18,5.90
2011,05,19,07,19,5.90
2011,05,19,07,20,6.00
2011,05,19,07,21,6.00
2011,05,19,07,22,6.00
2011,05,19,07,23,6.10
2011,05,19,07,24,6.10
2011,05,19,07,25,6.20
2011,05,19,07,26,6.20
2011,05,19,07,27,6.30
2011,05,19,07,28,6.40
2011,05,19,07,29,6.40
2011,05,19,07,30,6.40
2011,05,19,07,31,6.50
2011,05,19,07,32,6.60
2011,05,19,07,33,6.60
2011,05,19,07,34,6.70
2011,05,19,07,35,6.80
2011,05,19,07,36,6.80
2011,05,19,07,37,6.90
2011,05,19,07,38,7.00
2011,05,19,07,39,7.10
2011,05,19,07,40,7.10
2011,05,19,07,41,7.20
2011,05,19,07,42,7.30
2011,05,19,07,43,7.40
2011,05,19,07,44,7.50
2011,05,19,07,45,7.50
2011,05,19,07,46,7.60
2011,05,19,07,47,7.70
2011,05,19,07,48,7.80
2011,05,19,07,49,7.90
2011,05,19,07,50,7.90
2011,05,19,07,51,8.00
2011,05,19,07,52,8.10
2011,05,19,07,53,8.20
2011,05,19,07,54,8.20
2011,05,19,07,55,8.30
2011,05,19,07,56,8.40
2011,05,19,07,57,8.50
2011,05,19,07,58,8.50
2011,05,19,07,59,8.60
2011,05,19,08,00,8.70
2011,05,19,08,01,8.80
2011,05,19,08,02,8.90
2011,05,19,08,03,9.00
2011,05,19,08,04,9.10
2011,05,19,08,05,9.10
2011,05,19,08,06,9.10
2011,05,19,08,07,9.20
2011,05,19,08,08,9.20
2011,05,19,08,09,9.20
2011,05,19,08,10,9.30
2011,05,19,08,11,9.30
2011,05,19,08,12,9.30
2011,05,19,08,13,9.30
2011,05,19,08,14,9.20
2011,05,19,08,15,9.20
2011,05,19,08,16,9.30
2011,05,19,08,17,9.30
2011,05,19,08,18,9.30
2011,05,19,08,19,9.20
2011,05,19,08,20,9.20
2011,05,19,08,21,9.20
2011,05,19,08,22,9.10
2011,05,19,08,23,9.10
2011,05,19,08,24,9.20
2011,05,19,08,25,9.20
2011,05,19,08,26,9.20
2011,05,19,08,27,9.20
2011,05,19,08,28,9.20
2011,05,19,08,29,9.20
2011,05,19,08,30,9.10
2011,05,19,08,31,9.10
2011,05,19,08,32,9.00
2011,05,19,08,33,8.90
2011,05,19,08,34,8.90
2011,05,19,08,35,8.90
2011,05,19,08,36,8.80
2011,05,19,08,37,8.90
2011,05,19,08,38,8.90
2011,05,19,08,39,8.90
2011,05,19,08,40,8.90
2011,05,19,08,41,8.90
2011,05,19,08,42,8.90
2011,05,19,08,43,8.90
2011,05,19,08,44,8.90
2011,05,19,08,45,8.90
2011,05,19,08,46,8.90
2011,05,19,08,47,8.90
2011,05,19,08,48,8.90
2011,05,19,08,49,9.00
2011,05,19,08,50,9.00
2011,05,19,08,51,9.00
2011,05,19,08,52,9.00
2011,05,19,08,53,8.90
2011,05,19,08,54,9.00
2011,05,19,08,55,9.00
2011,05,19,08,56,8.90
2011,05,19,08,57,8.90
2011,05,19,08,58,8.90
2011,05,19,08,59,8.90
2011,05,19,09,00,8.90
2011,05,19,09,01,9.00
2011,05,19,09,02,9.10
2011,05,19,09,03,9.20
2011,05,19,09,04,9.20
2011,05,19,09,05,9.20
2011,05,19,09,06,9.20
2011,05,19,09,07,9.20
2011,05,19,09,08,9.20
2011,05,19,09,09,9.10
2011,05,19,09,10,9.10
2011,05,19,09,11,9.20
2011,05,19,09,12,9.20
2011,05,19,09,13,9.30
2011,05,19,09,14,9.40
2011,05,19,09,15,9.50
2011,05,19,09,16,9.60
2011,05,19,09,17,9.60
2011,05,19,09,18,9.70
2011,05,19,09,19,9.70
2011,05,19,09,20,9.70
2011,05,19,09,21,9.80
2011,05,19,09,22,9.90
2011,05,19,09,23,9.90
2011,05,19,09,24,10.00
2011,05,19,09,25,10.10
2011,05,19,09,26,10.10
2011,05,19,09,27,10.20
2011,05,19,09,28,10.20
2011,05,19,09,29,10.30
2011,05,19,09,30,10.30
2011,05,19,09,31,10.40
2011,05,19,09,32,10.40
2011,05,19,09,33,10.40
2011,05,19,09,34,10.40
2011,05,19,09,35,10.40
2011,05,19,09,36,10.40
2011,05,19,09,37,10.30
2011,05,19,09,38,10.30
2011,05,19,09,39,10.30
2011,05,19,09,40,10.30
2011,05,19,09,41,10.30
2011,05,19,09,42,10.30
2011,05,19,09,43,10.30
2011,05,19,09,44,10.30
2011,05,19,09,45,10.30
2011,05,19,09,46,10.30
2011,05,19,09,47,10.40
2011,05,19,09,48,10.40
2011,05,19,09,49,10.40
2011,05,19,09,50,10.50
2011,05,19,09,51,10.40
2011,05,19,09,52,10.40
2011,05,19,09,53,10.50
2011,05,19,09,54,10.60
2011,05,19,09,55,10.60
2011,05,19,09,56,10.60
2011,05,19,09,57,10.70
2011,05,19,09,58,10.70
2011,05,19,09,59,10.70
2011,05,19,10,00,10.80
2011,05,19,10,01,10.80
2011,05,19,10,02,10.90
2011,05,19,10,03,10.90
2011,05,19,10,04,11.00
2011,05,19,10,05,11.10
2011,05,19,10,06,11.00
2011,05,19,10,07,10.80
2011,05,19,10,08,10.60
2011,05,19,10,09,10.40
2011,05,19,10,10,10.20
2011,05,19,10,11,10.10
2011,05,19,10,12,10.10
2011,05,19,10,13,10.00
2011,05,19,10,14,9.90
2011,05,19,10,15,9.80
2011,05,19,10,16,9.70
2011,05,19,10,17,9.60
2011,05,19,10,18,9.60
2011,05,19,10,19,9.50
2011,05,19,10,20,9.50
2011,05,19,10,21,9.50
2011,05,19,10,22,9.50
2011,05,19,10,23,9.50
2011,05,19,10,24,9.60
2011,05,19,10,25,9.50
2011,05,19,10,26,9.60
2011,05,19,10,27,9.60
2011,05,19,10,28,9.70
2011,05,19,10,29,9.70
2011,05,19,10,30,9.70
2011,05,19,10,31,9.80
2011,05,19,10,32,9.90
2011,05,19,10,33,9.90
2011,05,19,10,34,10.00
2011,05,19,10,35,10.10
2011,05,19,10,36,10.10
2011,05,19,10,37,10.10
2011,05,19,10,38,10.10
2011,05,19,10,39,10.10
2011,05,19,10,40,10.10
2011,05,19,10,41,10.10
2011,05,19,10,42,10.10
2011,05,19,10,43,9.90
2011,05,19,10,44,9.90
2011,05,19,10,45,9.90
2011,05,19,10,46,9.90
2011,05,19,10,47,9.90
2011,05,19,10,48,10.10
2011,05,19,10,49,10.10
2011,05,19,10,50,10.10
2011,05,19,10,51,10.10
2011,05,19,10,52,10.10
2011,05,19,10,53,10.10
2011,05,19,10,54,10.10
2011,05,19,10,55,10.10
2011,05,19,10,56,10.10
2011,05,19,10,57,10.10
2011,05,19,10,58,10.00
2011,05,19,10,59,9.90
2011,05,19,11,00,9.90
2011,05,19,11,01,9.90
2011,05,19,11,02,9.90
2011,05,19,11,03,9.90
2011,05,19,11,04,9.90
2011,05,19,11,05,9.90
2011,05,19,11,06,9.90
2011,05,19,11,07,9.90
2011,05,19,11,08,10.00
2011,05,19,11,09,10.10
2011,05,19,11,10,10.20
2011,05,19,11,11,10.40
2011,05,19,11,12,10.40
2011,05,19,11,13,10.40
2011,05,19,11,14,10.50
2011,05,19,11,15,10.60
2011,05,19,11,16,10.70
2011,05,19,11,17,10.70
2011,05,19,11,18,10.60
2011,05,19,11,19,10.60
2011,05,19,11,20,10.60
2011,05,19,11,21,10.70
2011,05,19,11,22,10.70
2011,05,19,11,23,10.70
2011,05,19,11,24,10.70
2011,05,19,11,25,10.80
2011,05,19,11,26,10.80
2011,05,19,11,27,10.80
2011,05,19,11,28,10.70
2011,05,19,11,29,10.70
2011,05,19,11,30,10.70
2011,05,19,11,31,10.70
2011,05,19,11,32,10.80
2011,05,19,11,33,10.90
2011,05,19,11,34,10.90
2011,05,19,11,35,10.90
2011,05,19,11,36,10.90
2011,05,19,11,37,10.90
2011,05,19,11,38,11.10
2011,05,19,11,39,11.10
2011,05,19,11,40,11.10
2011,05,19,11,41,11.10
2011,05,19,11,42,11.10
2011,05,19,11,43,11.10
2011,05,19,11,44,11.10
2011,05,19,11,45,11.10
2011,05,19,11,46,11.10
2011,05,19,11,47,11.10
2011,05,19,11,48,11.10
2011,05,19,11,49,11.10
2011,05,19,11,50,11.10
2011,05,19,11,51,11.10
2011,05,19,11,52,11.20
2011,05,19,11,53,11.30
2011,05,19,11,54,11.40
2011,05,19,11,55,11.50
2011,05,19,11,56,11.60
2011,05,19,11,57,11.70
2011,05,19,11,58,11.80
2011,05,19,11,59,11.80
2011,05,19,12,00,11.90
2011,05,19,12,01,12.00
2011,05,19,12,02,12.20
2011,05,19,12,03,12.30
2011,05,19,12,04,12.40
2011,05,19,12,05,12.50
2011,05,19,12,06,12.60
2011,05,19,12,07,12.60
2011,05,19,12,08,12.60
2011,05,19,12,09,12.60
2011,05,19,12,10,12.70
2011,05,19,12,11,12.60
2011,05,19,12,12,12.50
2011,05,19,12,13,12.50
2011,05,19,12,14,12.50
2011,05,19,12,15,12.60
2011,05,19,12,16,12.60
2011,05,19,12,17,12.50
2011,05,19,12,18,12.50
2011,05,19,12,19,12.40
2011,05,19,12,20,12.40
2011,05,19,12,21,12.60
2011,05,19,12,22,12.80
2011,05,19,12,23,12.80
2011,05,19,12,24,12.80
2011,05,19,12,25,12.90
2011,05,19,12,26,12.90
2011,05,19,12,27,12.90
2011,05,19,12,28,12.80
2011,05,19,12,29,12.80
2011,05,19,12,30,12.80
2011,05,19,12,31,12.70
2011,05,19,12,32,12.70
2011,05,19,12,33,12.60
2011,05,19,12,34,12.50
2011,05,19,12,35,12.50
2011,05,19,12,36,12.50
2011,05,19,12,37,12.40
2011,05,19,12,38,12.40
2011,05,19,12,39,12.40
2011,05,19,12,40,12.20
2011,05,19,12,41,12.10
2011,05,19,12,42,12.10
2011,05,19,12,43,11.90
2011,05,19,12,44,11.80
2011,05,19,12,45,11.70
2011,05,19,12,46,11.60
2011,05,19,12,47,11.60
2011,05,19,12,48,11.70
2011,05,19,12,49,11.60
2011,05,19,12,50,11.70
2011,05,19,12,51,11.80
2011,05,19,12,52,11.90
2011,05,19,12,53,12.10
2011,05,19,12,54,12.20
2011,05,19,12,55,12.20
2011,05,19,12,56,12.10
2011,05,19,12,57,12.10
2011,05,19,12,58,12.00
2011,05,19,12,59,12.20
2011,05,19,13,00,12.20
2011,05,19,13,01,12.30
2011,05,19,13,02,12.30
2011,05,19,13,03,12.30
2011,05,19,13,04,12.30
2011,05,19,13,05,12.30
2011,05,19,13,06,12.20
2011,05,19,13,07,12.10
2011,05,19,13,08,12.20
2011,05,19,13,09,12.30
2011,05,19,13,10,12.30
2011,05,19,13,11,12.30
2011,05,19,13,12,12.40
2011,05,19,13,13,12.50
2011,05,19,13,14,12.50
2011,05,19,13,15,12.40
2011,05,19,13,16,12.30
2011,05,19,13,17,12.30
2011,05,19,13,18,12.20
2011,05,19,13,19,12.10
2011,05,19,13,20,12.10
2011,05,19,13,21,12.00
2011,05,19,13,22,12.00
2011,05,19,13,23,12.00
2011,05,19,13,24,12.20
2011,05,19,13,25,12.30
2011,05,19,13,26,12.30
2011,05,19,13,27,12.30
2011,05,19,13,28,12.30
2011,05,19,13,29,12.30
2011,05,19,13,30,12.30
2011,05,19,13,31,12.20
2011,05,19,13,32,12.10
2011,05,19,13,33,12.20
2011,05,19,13,34,12.30
2011,05,19,13,35,12.30
2011,05,19,13,36,12.30
2011,05,19,13,37,12.30
2011,05,19,13,38,12.30
2011,05,19,13,39,12.30
2011,05,19,13,40,12.30
2011,05,19,13,41,12.50
2011,05,19,13,42,12.70
2011,05,19,13,43,12.80
2011,05,19,13,44,12.80
2011,05,19,13,45,12.80
2011,05,19,13,46,12.80
2011,05,19,13,47,12.80
2011,05,19,13,48,12.90
2011,05,19,13,49,13.00
2011,05,19,13,50,13.00
2011,05,19,13,51,13.20
2011,05,19,13,52,13.30
2011,05,19,13,53,13.30
2011,05,19,13,54,13.30
2011,05,19,13,55,13.20
2011,05,19,13,56,13.10
2011,05,19,13,57,13.00
2011,05,19,13,58,13.00
2011,05,19,13,59,13.00
2011,05,19,14,00,13.00
2011,05,19,14,01,12.90
2011,05,19,14,02,12.90
2011,05,19,14,03,12.80
2011,05,19,14,04,12.70
2011,05,19,14,05,12.60
2011,05,19,14,06,12.50
2011,05,19,14,07,12.40
2011,05,19,14,08,12.40
2011,05,19,14,09,12.40
2011,05,19,14,10,12.50
2011,05,19,14,11,12.50
2011,05,19,14,12,12.50
2011,05,19,14,13,12.60
2011,05,19,14,14,12.60
2011,05,19,14,15,12.70
2011,05,19,14,16,12.70
2011,05,19,14,17,12.60
2011,05,19,14,18,12.60
2011,05,19,14,19,12.50
2011,05,19,14,20,12.40
2011,05,19,14,21,12.30
2011,05,19,14,22,12.30
2011,05,19,14,23,12.30
2011,05,19,14,24,12.40
2011,05,19,14,25,12.40
2011,05,19,14,26,12.40
2011,05,19,14,27,12.40
2011,05,19,14,28,12.30
2011,05,19,14,29,12.30
2011,05,19,14,30,12.30
2011,05,19,14,31,12.30
2011,05,19,14,32,12.30
2011,05,19,14,33,12.20
2011,05,19,14,34,12.00
2011,05,19,14,35,11.80
2011,05,19,14,36,11.80
2011,05,19,14,37,11.70
2011,05,19,14,38,11.80
2011,05,19,14,39,11.80
2011,05,19,14,40,11.80
2011,05,19,14,41,11.80
2011,05,19,14,42,11.70
2011,05,19,14,43,11.60
2011,05,19,14,44,11.60
2011,05,19,14,45,11.50
2011,05,19,14,46,11.40
2011,05,19,14,47,11.30
2011,05,19,14,48,11.20
2011,05,19,14,49,11.20
2011,05,19,14,50,11.20
2011,05,19,14,51,11.20
2011,05,19,14,52,11.10
2011,05,19,14,53,11.10
2011,05,19,14,54,11.10
2011,05,19,14,55,11.10
2011,05,19,14,56,11.10
2011,05,19,14,57,11.10
2011,05,19,14,58,11.10
2011,05,19,14,59,10.90
2011,05,19,15,00,10.90
2011,05,19,15,01,10.90
2011,05,19,15,02,10.90
2011,05,19,15,03,10.90
2011,05,19,15,04,11.10
2011,05,19,15,05,11.20
2011,05,19,15,06,11.30
2011,05,19,15,07,11.30
2011,05,19,15,08,11.30
2011,05,19,15,09,11.30
2011,05,19,15,10,11.30
2011,05,19,15,11,11.40
2011,05,19,15,12,11.40
2011,05,19,15,13,11.40
2011,05,19,15,14,11.50
2011,05,19,15,15,11.60
2011,05,19,15,16,11.60
2011,05,19,15,17,11.60
2011,05,19,15,18,11.60
2011,05,19,15,19,11.60
2011,05,19,15,20,11.60
2011,05,19,15,21,11.70
2011,05,19,15,22,11.70
2011,05,19,15,23,11.70
2011,05,19,15,24,11.80
2011,05,19,15,25,11.80
2011,05,19,15,26,11.80
2011,05,19,15,27,11.80
2011,05,19,15,28,11.80
2011,05,19,15,29,11.80
2011,05,19,15,30,11.80
2011,05,19,15,31,11.70
2011,05,19,15,32,11.70
2011,05,19,15,33,11.70
2011,05,19,15,34,11.70
2011,05,19,15,35,11.80
2011,05,19,15,36,11.80
2011,05,19,15,37,12.00
2011,05,19,15,38,12.00
2011,05,19,15,39,12.20
2011,05,19,15,40,12.30
2011,05,19,15,41,12.30
2011,05,19,15,42,12.20
2011,05,19,15,43,12.00
2011,05,19,15,44,12.00
2011,05,19,15,45,11.80
2011,05,19,15,46,11.80
2011,05,19,15,47,11.80
2011,05,19,15,48,11.80
2011,05,19,15,49,11.80
2011,05,19,15,50,11.80
2011,05,19,15,51,11.80
2011,05,19,15,52,11.80
2011,05,19,15,53,11.80
2011,05,19,15,54,11.80
2011,05,19,15,55,11.90
2011,05,19,15,56,11.90
2011,05,19,15,57,12.00
2011,05,19,15,58,12.00
2011,05,19,15,59,12.00
2011,05,19,16,00,12.10
2011,05,19,16,01,12.20
2011,05,19,16,02,12.20
2011,05,19,16,03,12.20
2011,05,19,16,04,12.10
2011,05,19,16,05,12.20
2011,05,19,16,06,12.20
2011,05,19,16,07,12.10
2011,05,19,16,08,12.00
2011,05,19,16,09,12.00
2011,05,19,16,10,12.10
2011,05,19,16,11,12.10
2011,05,19,16,12,12.10
2011,05,19,16,13,12.10
2011,05,19,16,14,12.20
2011,05,19,16,15,12.30
2011,05,19,16,16,12.30
2011,05,19,16,17,12.30
2011,05,19,16,18,12.40
2011,05,19,16,19,12.40
2011,05,19,16,20,12.50
2011,05,19,16,21,12.60
2011,05,19,16,22,12.80
2011,05,19,16,23,12.90
2011,05,19,16,24,13.00
2011,05,19,16,25,13.10
2011,05,19,16,26,13.30
2011,05,19,16,27,13.40
2011,05,19,16,28,13.50
2011,05,19,16,29,13.70
2011,05,19,16,30,13.70
2011,05,19,16,31,13.90
2011,05,19,16,32,13.90
2011,05,19,16,33,14.10
2011,05,19,16,34,14.20
2011,05,19,16,35,14.30
2011,05,19,16,36,14.40
2011,05,19,16,37,14.50
2011,05,19,16,38,14.70
2011,05,19,16,39,14.80
2011,05,19,16,40,14.90
2011,05,19,16,41,15.00
2011,05,19,16,42,15.00
2011,05,19,16,43,15.10
2011,05,19,16,44,15.20
2011,05,19,16,45,15.20
2011,05,19,16,46,15.30
2011,05,19,16,47,15.30
2011,05,19,16,48,15.40
2011,05,19,16,49,15.50
2011,05,19,16,50,15.50
2011,05,19,16,51,15.50
2011,05,19,16,52,15.50
2011,05,19,16,53,15.40
2011,05,19,16,54,15.30
2011,05,19,16,55,15.20
2011,05,19,16,56,15.20
2011,05,19,16,57,15.30
2011,05,19,16,58,15.30
2011,05,19,16,59,15.40
2011,05,19,17,00,15.50
2011,05,19,17,01,15.40
2011,05,19,17,02,15.30
2011,05,19,17,03,15.20
2011,05,19,17,04,15.10
2011,05,19,17,05,15.10
2011,05,19,17,06,15.00
2011,05,19,17,07,15.10
2011,05,19,17,08,15.10
2011,05,19,17,09,15.20
2011,05,19,17,10,15.30
2011,05,19,17,11,15.50
2011,05,19,17,12,15.60
2011,05,19,17,13,15.70
2011,05,19,17,14,15.90
2011,05,19,17,15,16.10
2011,05,19,17,16,16.30
2011,05,19,17,17,16.40
2011,05,19,17,18,16.60
2011,05,19,17,19,16.70
2011,05,19,17,20,16.70
2011,05,19,17,21,16.80
2011,05,19,17,22,16.90
2011,05,19,17,23,17.00
2011,05,19,17,24,17.10
2011,05,19,17,25,17.20
2011,05,19,17,26,17.30
2011,05,19,17,27,17.30
2011,05,19,17,28,17.30
2011,05,19,17,29,17.30
2011,05,19,17,30,17.30
2011,05,19,17,31,17.50
2011,05,19,17,32,17.50
2011,05,19,17,33,17.60
2011,05,19,17,34,17.60
2011,05,19,17,35,17.60
2011,05,19,17,36,17.60
2011,05,19,17,37,17.60
2011,05,19,17,38,17.60
2011,05,19,17,39,17.70
2011,05,19,17,40,17.70
2011,05,19,17,41,17.60
2011,05,19,17,42,17.50
2011,05,19,17,43,17.40
2011,05,19,17,44,17.30
2011,05,19,17,45,17.30